Year,Month,Day,Hour,Minute,Value (Times are PST for temperature in C)
2012,07,14,00,00,12.30
2012,07,14,00,01,12.30
2012,07,14,00,02,12.30
2012,07,14,00,03,12.30
2012,07,14,00,04,12.30
2012,07,14,00,05,12.30
2012,07,14,00,06,12.30
2012,07,14,00,07,12.30
2012,07,14,00,08,12.30
2012,07,14,00,09,12.30
2012,07,14,00,10,12.30
2012,07,14,00,11,12.30
2012,07,14,00,12,12.30
2012,07,14,00,13,12.30
2012,07,14,00,14,12.30
2012,07,14,00,15,12.30
2012,07,14,00,16,12.30
2012,07,14,00,17,12.40
2012,07,14,00,18,12.40
2012,07,14,00,19,12.40
2012,07,14,00,20,12.40
2012,07,14,00,21,12.30
2012,07,14,00,22,12.30
2012,07,14,00,23,12.30
2012,07,14,00,24,12.30
2012,07,14,00,25,12.30
2012,07,14,00,26,12.30
2012,07,14,00,27,12.30
2012,07,14,00,28,12.30
2012,07,14,00,29,12.20
2012,07,14,00,30,12.20
2012,07,14,00,31,12.10
2012,07,14,00,32,12.10
2012,07,14,00,33,12.10
2012,07,14,00,34,12.10
2012,07,14,00,35,12.00
2012,07,14,00,36,12.00
2012,07,14,00,37,12.00
2012,07,14,00,38,11.90
2012,07,14,00,39,11.90
2012,07,14,00,40,11.90
2012,07,14,00,41,11.90
2012,07,14,00,42,11.90
2012,07,14,00,43,11.90
2012,07,14,00,44,12.00
2012,07,14,00,45,12.00
2012,07,14,00,46,12.00
2012,07,14,00,47,12.00
2012,07,14,00,48,12.00
2012,07,14,00,49,12.00
2012,07,14,00,50,12.00
2012,07,14,00,51,11.90
2012,07,14,00,52,11.90
2012,07,14,00,53,11.90
2012,07,14,00,54,12.00
2012,07,14,00,55,12.00
2012,07,14,00,56,12.00
2012,07,14,00,57,12.00
2012,07,14,00,58,12.00
2012,07,14,00,59,12.00
2012,07,14,01,00,12.00
2012,07,14,01,01,12.00
2012,07,14,01,02,12.00
2012,07,14,01,03,12.00
2012,07,14,01,04,12.00
2012,07,14,01,05,12.00
2012,07,14,01,06,12.00
2012,07,14,01,07,12.00
2012,07,14,01,08,12.00
2012,07,14,01,09,12.00
2012,07,14,01,10,12.00
2012,07,14,01,11,12.00
2012,07,14,01,12,12.00
2012,07,14,01,13,12.00
2012,07,14,01,14,12.00
2012,07,14,01,15,12.00
2012,07,14,01,16,12.00
2012,07,14,01,17,12.00
2012,07,14,01,18,12.00
2012,07,14,01,19,12.10
2012,07,14,01,20,12.10
2012,07,14,01,21,12.00
2012,07,14,01,22,12.00
2012,07,14,01,23,11.90
2012,07,14,01,24,11.90
2012,07,14,01,25,11.90
2012,07,14,01,26,11.90
2012,07,14,01,27,11.80
2012,07,14,01,28,11.80
2012,07,14,01,29,11.80
2012,07,14,01,30,11.80
2012,07,14,01,31,11.80
2012,07,14,01,32,11.80
2012,07,14,01,33,11.90
2012,07,14,01,34,11.90
2012,07,14,01,35,11.90
2012,07,14,01,36,11.90
2012,07,14,01,37,11.90
2012,07,14,01,38,11.90
2012,07,14,01,39,11.90
2012,07,14,01,40,11.90
2012,07,14,01,41,11.90
2012,07,14,01,42,11.90
2012,07,14,01,43,11.80
2012,07,14,01,44,11.80
2012,07,14,01,45,11.80
2012,07,14,01,46,11.80
2012,07,14,01,47,11.80
2012,07,14,01,48,11.80
2012,07,14,01,49,11.80
2012,07,14,01,50,11.80
2012,07,14,01,51,11.80
2012,07,14,01,52,11.80
2012,07,14,01,53,11.80
2012,07,14,01,54,11.80
2012,07,14,01,55,11.80
2012,07,14,01,56,11.70
2012,07,14,01,57,11.70
2012,07,14,01,58,11.70
2012,07,14,01,59,11.70
2012,07,14,02,00,11.70
2012,07,14,02,01,11.70
2012,07,14,02,02,11.70
2012,07,14,02,03,11.70
2012,07,14,02,04,11.70
2012,07,14,02,05,11.70
2012,07,14,02,06,11.70
2012,07,14,02,07,11.80
2012,07,14,02,08,11.80
2012,07,14,02,09,11.80
2012,07,14,02,10,11.80
2012,07,14,02,11,11.80
2012,07,14,02,12,11.80
2012,07,14,02,13,11.80
2012,07,14,02,14,11.80
2012,07,14,02,15,11.80
2012,07,14,02,16,11.80
2012,07,14,02,17,11.80
2012,07,14,02,18,11.80
2012,07,14,02,19,11.80
2012,07,14,02,20,11.80
2012,07,14,02,21,11.80
2012,07,14,02,22,11.80
2012,07,14,02,23,11.80
2012,07,14,02,24,11.80
2012,07,14,02,25,11.80
2012,07,14,02,26,11.80
2012,07,14,02,27,11.80
2012,07,14,02,28,11.80
2012,07,14,02,29,11.80
2012,07,14,02,30,11.80
2012,07,14,02,31,11.70
2012,07,14,02,32,11.80
2012,07,14,02,33,11.80
2012,07,14,02,34,11.80
2012,07,14,02,35,11.80
2012,07,14,02,36,11.80
2012,07,14,02,37,11.80
2012,07,14,02,38,11.80
2012,07,14,02,39,11.80
2012,07,14,02,40,11.80
2012,07,14,02,41,11.80
2012,07,14,02,42,11.80
2012,07,14,02,43,11.80
2012,07,14,02,44,11.80
2012,07,14,02,45,11.80
2012,07,14,02,46,11.80
2012,07,14,02,47,11.80
2012,07,14,02,48,11.80
2012,07,14,02,49,11.80
2012,07,14,02,50,11.80
2012,07,14,02,51,11.80
2012,07,14,02,52,11.80
2012,07,14,02,53,11.80
2012,07,14,02,54,11.80
2012,07,14,02,55,11.80
2012,07,14,02,56,11.80
2012,07,14,02,57,11.80
2012,07,14,02,58,11.80
2012,07,14,02,59,11.80
2012,07,14,03,00,11.80
2012,07,14,03,01,11.80
2012,07,14,03,02,11.80
2012,07,14,03,03,11.80
2012,07,14,03,04,11.80
2012,07,14,03,05,11.80
2012,07,14,03,06,11.80
2012,07,14,03,07,11.80
2012,07,14,03,08,11.80
2012,07,14,03,09,11.80
2012,07,14,03,10,11.80
2012,07,14,03,11,11.80
2012,07,14,03,12,11.80
2012,07,14,03,13,11.80
2012,07,14,03,14,11.80
2012,07,14,03,15,11.80
2012,07,14,03,16,11.80
2012,07,14,03,17,11.80
2012,07,14,03,18,11.80
2012,07,14,03,19,11.80
2012,07,14,03,20,11.80
2012,07,14,03,21,11.80
2012,07,14,03,22,11.80
2012,07,14,03,23,11.80
2012,07,14,03,24,11.80
2012,07,14,03,25,11.80
2012,07,14,03,26,11.80
2012,07,14,03,27,11.80
2012,07,14,03,28,11.80
2012,07,14,03,29,11.80
2012,07,14,03,30,11.80
2012,07,14,03,31,11.80
2012,07,14,03,32,11.80
2012,07,14,03,33,11.80
2012,07,14,03,34,11.80
2012,07,14,03,35,11.80
2012,07,14,03,36,11.80
2012,07,14,03,37,11.80
2012,07,14,03,38,11.80
2012,07,14,03,39,11.80
2012,07,14,03,40,11.80
2012,07,14,03,41,11.80
2012,07,14,03,42,11.80
2012,07,14,03,43,11.80
2012,07,14,03,44,11.80
2012,07,14,03,45,11.80
2012,07,14,03,46,11.80
2012,07,14,03,47,11.80
2012,07,14,03,48,11.80
2012,07,14,03,49,11.80
2012,07,14,03,50,11.70
2012,07,14,03,51,11.70
2012,07,14,03,52,11.70
2012,07,14,03,53,11.70
2012,07,14,03,54,11.70
2012,07,14,03,55,11.70
2012,07,14,03,56,11.70
2012,07,14,03,57,11.80
2012,07,14,03,58,11.80
2012,07,14,03,59,11.80
2012,07,14,04,00,11.80
2012,07,14,04,01,11.80
2012,07,14,04,02,11.80
2012,07,14,04,03,11.90
2012,07,14,04,04,11.90
2012,07,14,04,05,11.90
2012,07,14,04,06,11.90
2012,07,14,04,07,11.80
2012,07,14,04,08,11.80
2012,07,14,04,09,11.80
2012,07,14,04,10,11.80
2012,07,14,04,11,11.80
2012,07,14,04,12,11.70
2012,07,14,04,13,11.70
2012,07,14,04,14,11.70
2012,07,14,04,15,11.70
2012,07,14,04,16,11.70
2012,07,14,04,17,11.70
2012,07,14,04,18,11.80
2012,07,14,04,19,11.80
2012,07,14,04,20,11.80
2012,07,14,04,21,11.70
2012,07,14,04,22,11.70
2012,07,14,04,23,11.70
2012,07,14,04,24,11.70
2012,07,14,04,25,11.70
2012,07,14,04,26,11.70
2012,07,14,04,27,11.70
2012,07,14,04,28,11.70
2012,07,14,04,29,11.70
2012,07,14,04,30,11.70
2012,07,14,04,31,11.60
2012,07,14,04,32,11.60
2012,07,14,04,33,11.60
2012,07,14,04,34,11.60
2012,07,14,04,35,11.60
2012,07,14,04,36,11.60
2012,07,14,04,37,11.60
2012,07,14,04,38,11.60
2012,07,14,04,39,11.60
2012,07,14,04,40,11.60
2012,07,14,04,41,11.60
2012,07,14,04,42,11.60
2012,07,14,04,43,11.60
2012,07,14,04,44,11.60
2012,07,14,04,45,11.60
2012,07,14,04,46,11.60
2012,07,14,04,47,11.60
2012,07,14,04,48,11.60
2012,07,14,04,49,11.60
2012,07,14,04,50,11.60
2012,07,14,04,51,11.60
2012,07,14,04,52,11.60
2012,07,14,04,53,11.60
2012,07,14,04,54,11.60
2012,07,14,04,55,11.60
2012,07,14,04,56,11.60
2012,07,14,04,57,11.60
2012,07,14,04,58,11.60
2012,07,14,04,59,11.70
2012,07,14,05,00,11.70
2012,07,14,05,01,11.70
2012,07,14,05,02,11.70
2012,07,14,05,03,11.80
2012,07,14,05,04,11.80
2012,07,14,05,05,11.80
2012,07,14,05,06,11.80
2012,07,14,05,07,11.80
2012,07,14,05,08,11.80
2012,07,14,05,09,11.80
2012,07,14,05,10,11.80
2012,07,14,05,11,11.70
2012,07,14,05,12,11.70
2012,07,14,05,13,11.70
2012,07,14,05,14,11.70
2012,07,14,05,15,11.70
2012,07,14,05,16,11.70
2012,07,14,05,17,11.70
2012,07,14,05,18,11.70
2012,07,14,05,19,11.70
2012,07,14,05,20,11.70
2012,07,14,05,21,11.70
2012,07,14,05,22,11.70
2012,07,14,05,23,11.70
2012,07,14,05,24,11.70
2012,07,14,05,25,11.70
2012,07,14,05,26,11.70
2012,07,14,05,27,11.70
2012,07,14,05,28,11.70
2012,07,14,05,29,11.70
2012,07,14,05,30,11.70
2012,07,14,05,31,11.70
2012,07,14,05,32,11.70
2012,07,14,05,33,11.70
2012,07,14,05,34,11.70
2012,07,14,05,35,11.70
2012,07,14,05,36,11.70
2012,07,14,05,37,11.70
2012,07,14,05,38,11.70
2012,07,14,05,39,11.70
2012,07,14,05,40,11.70
2012,07,14,05,41,11.70
2012,07,14,05,42,11.70
2012,07,14,05,43,11.70
2012,07,14,05,44,11.70
2012,07,14,05,45,11.70
2012,07,14,05,46,11.70
2012,07,14,05,47,11.70
2012,07,14,05,48,11.70
2012,07,14,05,49,11.70
2012,07,14,05,50,11.70
2012,07,14,05,51,11.70
2012,07,14,05,52,11.70
2012,07,14,05,53,11.70
2012,07,14,05,54,11.70
2012,07,14,05,55,11.70
2012,07,14,05,56,11.60
2012,07,14,05,57,11.60
2012,07,14,05,58,11.60
2012,07,14,05,59,11.60
2012,07,14,06,00,11.60
2012,07,14,06,01,11.60
2012,07,14,06,02,11.70
2012,07,14,06,03,11.70
2012,07,14,06,04,11.70
2012,07,14,06,05,11.70
2012,07,14,06,06,11.70
2012,07,14,06,07,11.80
2012,07,14,06,08,11.80
2012,07,14,06,09,11.80
2012,07,14,06,10,11.80
2012,07,14,06,11,11.80
2012,07,14,06,12,11.80
2012,07,14,06,13,11.80
2012,07,14,06,14,11.80
2012,07,14,06,15,11.90
2012,07,14,06,16,11.90
2012,07,14,06,17,11.90
2012,07,14,06,18,12.00
2012,07,14,06,19,12.00
2012,07,14,06,20,12.00
2012,07,14,06,21,12.10
2012,07,14,06,22,12.10
2012,07,14,06,23,12.10
2012,07,14,06,24,12.20
2012,07,14,06,25,12.20
2012,07,14,06,26,12.20
2012,07,14,06,27,12.20
2012,07,14,06,28,12.20
2012,07,14,06,29,12.20
2012,07,14,06,30,12.20
2012,07,14,06,31,12.20
2012,07,14,06,32,12.20
2012,07,14,06,33,12.30
2012,07,14,06,34,12.30
2012,07,14,06,35,12.30
2012,07,14,06,36,12.30
2012,07,14,06,37,12.40
2012,07,14,06,38,12.50
2012,07,14,06,39,12.50
2012,07,14,06,40,12.60
2012,07,14,06,41,12.60
2012,07,14,06,42,12.70
2012,07,14,06,43,12.70
2012,07,14,06,44,12.70
2012,07,14,06,45,12.70
2012,07,14,06,46,12.80
2012,07,14,06,47,12.80
2012,07,14,06,48,12.80
2012,07,14,06,49,12.80
2012,07,14,06,50,12.80
2012,07,14,06,51,12.80
2012,07,14,06,52,12.80
2012,07,14,06,53,12.80
2012,07,14,06,54,12.90
2012,07,14,06,55,13.00
2012,07,14,06,56,13.00
2012,07,14,06,57,13.10
2012,07,14,06,58,13.10
2012,07,14,06,59,13.10
2012,07,14,07,00,13.10
2012,07,14,07,01,13.10
2012,07,14,07,02,13.10
2012,07,14,07,03,13.10
2012,07,14,07,04,13.20
2012,07,14,07,05,13.20
2012,07,14,07,06,13.20
2012,07,14,07,07,13.30
2012,07,14,07,08,13.30
2012,07,14,07,09,13.30
2012,07,14,07,10,13.30
2012,07,14,07,11,13.30
2012,07,14,07,12,13.30
2012,07,14,07,13,13.30
2012,07,14,07,14,13.30
2012,07,14,07,15,13.30
2012,07,14,07,16,13.30
2012,07,14,07,17,13.30
2012,07,14,07,18,13.40
2012,07,14,07,19,13.40
2012,07,14,07,20,13.40
2012,07,14,07,21,13.50
2012,07,14,07,22,13.50
2012,07,14,07,23,13.60
2012,07,14,07,24,13.70
2012,07,14,07,25,13.70
2012,07,14,07,26,13.80
2012,07,14,07,27,13.90
2012,07,14,07,28,13.90
2012,07,14,07,29,14.00
2012,07,14,07,30,14.10
2012,07,14,07,31,14.20
2012,07,14,07,32,14.20
2012,07,14,07,33,14.30
2012,07,14,07,34,14.40
2012,07,14,07,35,14.50
2012,07,14,07,36,14.50
2012,07,14,07,37,14.60
2012,07,14,07,38,14.60
2012,07,14,07,39,14.60
2012,07,14,07,40,14.70
2012,07,14,07,41,14.80
2012,07,14,07,42,14.80
2012,07,14,07,43,14.80
2012,07,14,07,44,14.90
2012,07,14,07,45,14.90
2012,07,14,07,46,15.00
2012,07,14,07,47,15.00
2012,07,14,07,48,14.90
2012,07,14,07,49,15.00
2012,07,14,07,50,15.00
2012,07,14,07,51,15.00
2012,07,14,07,52,15.00
2012,07,14,07,53,15.00
2012,07,14,07,54,15.00
2012,07,14,07,55,15.00
2012,07,14,07,56,15.00
2012,07,14,07,57,15.10
2012,07,14,07,58,15.10
2012,07,14,07,59,15.10
2012,07,14,08,00,15.10
2012,07,14,08,01,15.10
2012,07,14,08,02,15.10
2012,07,14,08,03,15.10
2012,07,14,08,04,15.10
2012,07,14,08,05,15.00
2012,07,14,08,06,15.00
2012,07,14,08,07,15.00
2012,07,14,08,08,15.00
2012,07,14,08,09,14.90
2012,07,14,08,10,15.00
2012,07,14,08,11,15.00
2012,07,14,08,12,15.00
2012,07,14,08,13,15.10
2012,07,14,08,14,15.10
2012,07,14,08,15,15.20
2012,07,14,08,16,15.20
2012,07,14,08,17,15.20
2012,07,14,08,18,15.30
2012,07,14,08,19,15.30
2012,07,14,08,20,15.30
2012,07,14,08,21,15.30
2012,07,14,08,22,15.30
2012,07,14,08,23,15.30
2012,07,14,08,24,15.30
2012,07,14,08,25,15.30
2012,07,14,08,26,15.30
2012,07,14,08,27,15.30
2012,07,14,08,28,15.30
2012,07,14,08,29,15.30
2012,07,14,08,30,15.30
2012,07,14,08,31,15.30
2012,07,14,08,32,15.30
2012,07,14,08,33,15.30
2012,07,14,08,34,15.20
2012,07,14,08,35,15.20
2012,07,14,08,36,15.10
2012,07,14,08,37,15.00
2012,07,14,08,38,15.00
2012,07,14,08,39,14.90
2012,07,14,08,40,14.90
2012,07,14,08,41,14.90
2012,07,14,08,42,14.80
2012,07,14,08,43,14.70
2012,07,14,08,44,14.70
2012,07,14,08,45,14.70
2012,07,14,08,46,14.70
2012,07,14,08,47,14.70
2012,07,14,08,48,14.70
2012,07,14,08,49,14.70
2012,07,14,08,50,14.70
2012,07,14,08,51,14.70
2012,07,14,08,52,14.80
2012,07,14,08,53,14.80
2012,07,14,08,54,14.80
2012,07,14,08,55,14.80
2012,07,14,08,56,14.80
2012,07,14,08,57,14.80
2012,07,14,08,58,14.80
2012,07,14,08,59,14.80
2012,07,14,09,00,14.80
2012,07,14,09,01,14.80
2012,07,14,09,02,14.80
2012,07,14,09,03,14.80
2012,07,14,09,04,14.80
2012,07,14,09,05,14.80
2012,07,14,09,06,14.80
2012,07,14,09,07,14.80
2012,07,14,09,08,14.70
2012,07,14,09,09,14.70
2012,07,14,09,10,14.70
2012,07,14,09,11,14.70
2012,07,14,09,12,14.60
2012,07,14,09,13,14.60
2012,07,14,09,14,14.60
2012,07,14,09,15,14.60
2012,07,14,09,16,14.50
2012,07,14,09,17,14.50
2012,07,14,09,18,14.50
2012,07,14,09,19,14.60
2012,07,14,09,20,14.60
2012,07,14,09,21,14.60
2012,07,14,09,22,14.70
2012,07,14,09,23,14.70
2012,07,14,09,24,14.80
2012,07,14,09,25,14.80
2012,07,14,09,26,14.80
2012,07,14,09,27,14.90
2012,07,14,09,28,15.00
2012,07,14,09,29,15.10
2012,07,14,09,30,15.20
2012,07,14,09,31,15.30
2012,07,14,09,32,15.50
2012,07,14,09,33,15.50
2012,07,14,09,34,15.60
2012,07,14,09,35,15.70
2012,07,14,09,36,15.80
2012,07,14,09,37,15.80
2012,07,14,09,38,15.90
2012,07,14,09,39,15.90
2012,07,14,09,40,15.90
2012,07,14,09,41,15.80
2012,07,14,09,42,15.80
2012,07,14,09,43,15.80
2012,07,14,09,44,15.80
2012,07,14,09,45,15.80
2012,07,14,09,46,15.60
2012,07,14,09,47,15.40
2012,07,14,09,48,15.30
2012,07,14,09,49,15.20
2012,07,14,09,50,15.20
2012,07,14,09,51,15.10
2012,07,14,09,52,15.10
2012,07,14,09,53,15.20
2012,07,14,09,54,15.20
2012,07,14,09,55,15.30
2012,07,14,09,56,15.40
2012,07,14,09,57,15.50
2012,07,14,09,58,15.50
2012,07,14,09,59,15.60
2012,07,14,10,00,15.60
2012,07,14,10,01,15.60
2012,07,14,10,02,15.70
2012,07,14,10,03,15.70
2012,07,14,10,04,15.80
2012,07,14,10,05,15.80
2012,07,14,10,06,15.80
2012,07,14,10,07,15.80
2012,07,14,10,08,15.80
2012,07,14,10,09,15.70
2012,07,14,10,10,15.70
2012,07,14,10,11,15.70
2012,07,14,10,12,15.80
2012,07,14,10,13,15.80
2012,07,14,10,14,15.80
2012,07,14,10,15,15.80
2012,07,14,10,16,15.90
2012,07,14,10,17,16.00
2012,07,14,10,18,16.10
2012,07,14,10,19,16.20
2012,07,14,10,20,16.30
2012,07,14,10,21,16.40
2012,07,14,10,22,16.40
2012,07,14,10,23,16.50
2012,07,14,10,24,16.60
2012,07,14,10,25,16.50
2012,07,14,10,26,16.40
2012,07,14,10,27,16.40
2012,07,14,10,28,16.40
2012,07,14,10,29,16.40
2012,07,14,10,30,16.40
2012,07,14,10,31,16.40
2012,07,14,10,32,16.40
2012,07,14,10,33,16.40
2012,07,14,10,34,16.40
2012,07,14,10,35,16.40
2012,07,14,10,36,16.40
2012,07,14,10,37,16.40
2012,07,14,10,38,16.40
2012,07,14,10,39,16.40
2012,07,14,10,40,16.40
2012,07,14,10,41,16.40
2012,07,14,10,42,16.30
2012,07,14,10,43,16.20
2012,07,14,10,44,16.20
2012,07,14,10,45,16.10
2012,07,14,10,46,16.10
2012,07,14,10,47,16.10
2012,07,14,10,48,16.10
2012,07,14,10,49,16.10
2012,07,14,10,50,16.10
2012,07,14,10,51,16.10
2012,07,14,10,52,16.10
2012,07,14,10,53,16.10
2012,07,14,10,54,16.10
2012,07,14,10,55,16.20
2012,07,14,10,56,16.20
2012,07,14,10,57,16.30
2012,07,14,10,58,16.30
2012,07,14,10,59,16.30
2012,07,14,11,00,16.40
2012,07,14,11,01,16.40
2012,07,14,11,02,16.50
2012,07,14,11,03,16.60
2012,07,14,11,04,16.70
2012,07,14,11,05,16.80
2012,07,14,11,06,17.00
2012,07,14,11,07,17.00
2012,07,14,11,08,17.10
2012,07,14,11,09,17.20
2012,07,14,11,10,17.30
2012,07,14,11,11,17.40
2012,07,14,11,12,17.50
2012,07,14,11,13,17.60
2012,07,14,11,14,17.70
2012,07,14,11,15,17.80
2012,07,14,11,16,17.80
2012,07,14,11,17,17.70
2012,07,14,11,18,17.80
2012,07,14,11,19,17.80
2012,07,14,11,20,17.80
2012,07,14,11,21,17.80
2012,07,14,11,22,17.80
2012,07,14,11,23,17.90
2012,07,14,11,24,17.90
2012,07,14,11,25,17.90
2012,07,14,11,26,17.90
2012,07,14,11,27,18.00
2012,07,14,11,28,18.10
2012,07,14,11,29,18.00
2012,07,14,11,30,18.10
2012,07,14,11,31,18.20
2012,07,14,11,32,18.20
2012,07,14,11,33,18.30
2012,07,14,11,34,18.40
2012,07,14,11,35,18.50
2012,07,14,11,36,18.60
2012,07,14,11,37,18.70
2012,07,14,11,38,18.80
2012,07,14,11,39,18.90
2012,07,14,11,40,19.00
2012,07,14,11,41,19.10
2012,07,14,11,42,19.20
2012,07,14,11,43,19.30
2012,07,14,11,44,19.40
2012,07,14,11,45,19.40
2012,07,14,11,46,19.60
2012,07,14,11,47,19.60
2012,07,14,11,48,19.80
2012,07,14,11,49,19.90
2012,07,14,11,50,19.90
2012,07,14,11,51,19.80
2012,07,14,11,52,19.80
2012,07,14,11,53,19.80
2012,07,14,11,54,19.80
2012,07,14,11,55,19.70
2012,07,14,11,56,19.60
2012,07,14,11,57,19.60
2012,07,14,11,58,19.50
2012,07,14,11,59,19.40
2012,07,14,12,00,19.40
2012,07,14,12,01,19.30
2012,07,14,12,02,19.30
2012,07,14,12,03,19.30
2012,07,14,12,04,19.20
2012,07,14,12,05,19.20
2012,07,14,12,06,19.10
2012,07,14,12,07,19.10
2012,07,14,12,08,19.10
2012,07,14,12,09,19.00
2012,07,14,12,10,18.90
2012,07,14,12,11,18.90
2012,07,14,12,12,18.90
2012,07,14,12,13,18.90
2012,07,14,12,14,18.90
2012,07,14,12,15,18.90
2012,07,14,12,16,18.90
2012,07,14,12,17,18.80
2012,07,14,12,18,18.70
2012,07,14,12,19,18.70
2012,07,14,12,20,18.70
2012,07,14,12,21,18.70
2012,07,14,12,22,18.80
2012,07,14,12,23,18.80
2012,07,14,12,24,18.90
2012,07,14,12,25,18.90
2012,07,14,12,26,19.10
2012,07,14,12,27,19.10
2012,07,14,12,28,19.20
2012,07,14,12,29,19.20
2012,07,14,12,30,19.20
2012,07,14,12,31,19.10
2012,07,14,12,32,19.10
2012,07,14,12,33,19.10
2012,07,14,12,34,19.10
2012,07,14,12,35,19.10
2012,07,14,12,36,19.10
2012,07,14,12,37,19.10
2012,07,14,12,38,19.10
2012,07,14,12,39,19.10
2012,07,14,12,40,19.10
2012,07,14,12,41,19.10
2012,07,14,12,42,19.10
2012,07,14,12,43,19.10
2012,07,14,12,44,19.00
2012,07,14,12,45,18.90
2012,07,14,12,46,18.80
2012,07,14,12,47,18.60
2012,07,14,12,48,18.50
2012,07,14,12,49,18.50
2012,07,14,12,50,18.40
2012,07,14,12,51,18.30
2012,07,14,12,52,18.30
2012,07,14,12,53,18.30
2012,07,14,12,54,18.20
2012,07,14,12,55,18.20
2012,07,14,12,56,18.20
2012,07,14,12,57,18.10
2012,07,14,12,58,18.00
2012,07,14,12,59,17.90
2012,07,14,13,00,17.70
2012,07,14,13,01,17.60
2012,07,14,13,02,17.40
2012,07,14,13,03,17.10
2012,07,14,13,04,16.80
2012,07,14,13,05,16.60
2012,07,14,13,06,16.40
2012,07,14,13,07,16.20
2012,07,14,13,08,16.10
2012,07,14,13,09,16.00
2012,07,14,13,10,15.90
2012,07,14,13,11,15.80
2012,07,14,13,12,15.80
2012,07,14,13,13,15.80
2012,07,14,13,14,15.80
2012,07,14,13,15,15.70
2012,07,14,13,16,15.60
2012,07,14,13,17,15.60
2012,07,14,13,18,15.60
2012,07,14,13,19,15.50
2012,07,14,13,20,15.50
2012,07,14,13,21,15.50
2012,07,14,13,22,15.60
2012,07,14,13,23,15.60
2012,07,14,13,24,15.80
2012,07,14,13,25,15.90
2012,07,14,13,26,16.00
2012,07,14,13,27,16.20
2012,07,14,13,28,16.30
2012,07,14,13,29,16.40
2012,07,14,13,30,16.60
2012,07,14,13,31,16.70
2012,07,14,13,32,16.90
2012,07,14,13,33,17.00
2012,07,14,13,34,17.20
2012,07,14,13,35,17.30
2012,07,14,13,36,17.50
2012,07,14,13,37,17.60
2012,07,14,13,38,17.80
2012,07,14,13,39,17.90
2012,07,14,13,40,18.00
2012,07,14,13,41,18.10
2012,07,14,13,42,18.20
2012,07,14,13,43,18.40
2012,07,14,13,44,18.50
2012,07,14,13,45,18.60
2012,07,14,13,46,18.70
2012,07,14,13,47,18.80
2012,07,14,13,48,18.90
2012,07,14,13,49,19.10
2012,07,14,13,50,19.20
2012,07,14,13,51,19.30
2012,07,14,13,52,19.40
2012,07,14,13,53,19.40
2012,07,14,13,54,19.50
2012,07,14,13,55,19.50
2012,07,14,13,56,19.50
2012,07,14,13,57,19.50
2012,07,14,13,58,19.60
2012,07,14,13,59,19.60
2012,07,14,14,00,19.60
2012,07,14,14,01,19.70
2012,07,14,14,02,19.80
2012,07,14,14,03,19.80
2012,07,14,14,04,19.90
2012,07,14,14,05,19.90
2012,07,14,14,06,19.90
2012,07,14,14,07,20.10
2012,07,14,14,08,20.20
2012,07,14,14,09,20.30
2012,07,14,14,10,20.40
2012,07,14,14,11,20.50
2012,07,14,14,12,20.60
2012,07,14,14,13,20.80
2012,07,14,14,14,21.00
2012,07,14,14,15,21.10
2012,07,14,14,16,21.30
2012,07,14,14,17,21.40
2012,07,14,14,18,21.60
2012,07,14,14,19,21.70
2012,07,14,14,20,21.70
2012,07,14,14,21,21.80
2012,07,14,14,22,21.80
2012,07,14,14,23,21.90
2012,07,14,14,24,22.00
2012,07,14,14,25,22.00
2012,07,14,14,26,22.00
2012,07,14,14,27,22.00
2012,07,14,14,28,22.00
2012,07,14,14,29,22.10
2012,07,14,14,30,22.20
2012,07,14,14,31,22.30
2012,07,14,14,32,22.40
2012,07,14,14,33,22.50
2012,07,14,14,34,22.60
2012,07,14,14,35,22.60
2012,07,14,14,36,22.60
2012,07,14,14,37,22.60
2012,07,14,14,38,22.70
2012,07,14,14,39,22.70
2012,07,14,14,40,22.80
2012,07,14,14,41,22.80
2012,07,14,14,42,22.80
2012,07,14,14,43,22.80
2012,07,14,14,44,22.70
2012,07,14,14,45,22.70
2012,07,14,14,46,22.70
2012,07,14,14,47,22.70
2012,07,14,14,48,22.70
2012,07,14,14,49,22.70
2012,07,14,14,50,22.80
2012,07,14,14,51,22.80
2012,07,14,14,52,22.90
2012,07,14,14,53,22.90
2012,07,14,14,54,23.00
2012,07,14,14,55,23.10
2012,07,14,14,56,23.20
2012,07,14,14,57,23.20
2012,07,14,14,58,23.30
2012,07,14,14,59,23.30
2012,07,14,15,00,23.30
2012,07,14,15,01,23.40
2012,07,14,15,02,23.40
2012,07,14,15,03,23.50
2012,07,14,15,04,23.60
2012,07,14,15,05,23.70
2012,07,14,15,06,23.70
2012,07,14,15,07,23.70
2012,07,14,15,08,23.70
2012,07,14,15,09,23.70
2012,07,14,15,10,23.80
2012,07,14,15,11,23.80
2012,07,14,15,12,23.80
2012,07,14,15,13,23.90
2012,07,14,15,14,24.00
2012,07,14,15,15,24.10
2012,07,14,15,16,24.10
2012,07,14,15,17,24.20
2012,07,14,15,18,24.10
2012,07,14,15,19,24.10
2012,07,14,15,20,24.10
2012,07,14,15,21,24.10
2012,07,14,15,22,24.20
2012,07,14,15,23,24.20
2012,07,14,15,24,24.30
2012,07,14,15,25,24.30
2012,07,14,15,26,24.30
2012,07,14,15,27,24.30
2012,07,14,15,28,24.20
2012,07,14,15,29,24.20
2012,07,14,15,30,24.10
2012,07,14,15,31,24.10
2012,07,14,15,32,24.10
2012,07,14,15,33,24.10
2012,07,14,15,34,24.10
2012,07,14,15,35,24.20
2012,07,14,15,36,24.20
2012,07,14,15,37,24.20
2012,07,14,15,38,24.30
2012,07,14,15,39,24.30
2012,07,14,15,40,24.30
2012,07,14,15,41,24.30
2012,07,14,15,42,24.30
2012,07,14,15,43,24.30
2012,07,14,15,44,24.40
2012,07,14,15,45,24.40
2012,07,14,15,46,24.40
2012,07,14,15,47,24.30
2012,07,14,15,48,24.30
2012,07,14,15,49,24.20
2012,07,14,15,50,24.20
2012,07,14,15,51,24.20
2012,07,14,15,52,24.30
2012,07,14,15,53,24.30
2012,07,14,15,54,24.30
2012,07,14,15,55,24.30
2012,07,14,15,56,24.30
2012,07,14,15,57,24.30
2012,07,14,15,58,24.30
2012,07,14,15,59,24.30
2012,07,14,16,00,24.20
2012,07,14,16,01,24.30
2012,07,14,16,02,24.30
2012,07,14,16,03,24.40
2012,07,14,16,04,24.50
2012,07,14,16,05,24.50
2012,07,14,16,06,24.50
2012,07,14,16,07,24.60
2012,07,14,16,08,24.60
2012,07,14,16,09,24.60
2012,07,14,16,10,24.60
2012,07,14,16,11,24.60
2012,07,14,16,12,24.60
2012,07,14,16,13,24.60
2012,07,14,16,14,24.60
2012,07,14,16,15,24.60
2012,07,14,16,16,24.70
2012,07,14,16,17,24.70
2012,07,14,16,18,24.70
2012,07,14,16,19,24.70
2012,07,14,16,20,24.70
2012,07,14,16,21,24.80
2012,07,14,16,22,24.80
2012,07,14,16,23,24.80
2012,07,14,16,24,24.90
2012,07,14,16,25,24.90
2012,07,14,16,26,24.90
2012,07,14,16,27,24.80
2012,07,14,16,28,24.80
2012,07,14,16,29,24.90
2012,07,14,16,30,25.00
2012,07,14,16,31,25.00
2012,07,14,16,32,25.00
2012,07,14,16,33,24.90
2012,07,14,16,34,24.90
2012,07,14,16,35,24.90
2012,07,14,16,36,24.90
2012,07,14,16,37,24.90
2012,07,14,16,38,24.90
2012,07,14,16,39,24.90
2012,07,14,16,40,24.90
2012,07,14,16,41,24.90
2012,07,14,16,42,24.80
2012,07,14,16,43,24.80
2012,07,14,16,44,24.70
2012,07,14,16,45,24.50
2012,07,14,16,46,24.40
2012,07,14,16,47,24.30
2012,07,14,16,48,24.10
2012,07,14,16,49,24.00
2012,07,14,16,50,23.90
2012,07,14,16,51,23.80
2012,07,14,16,52,23.60
2012,07,14,16,53,23.50
2012,07,14,16,54,23.40
2012,07,14,16,55,23.30
2012,07,14,16,56,23.20
2012,07,14,16,57,23.20
2012,07,14,16,58,23.20
2012,07,14,16,59,23.10
2012,07,14,17,00,23.00
2012,07,14,17,01,22.90
2012,07,14,17,02,22.80
2012,07,14,17,03,22.70
2012,07,14,17,04,22.60
2012,07,14,17,05,22.50
2012,07,14,17,06,22.60
2012,07,14,17,07,22.60
2012,07,14,17,08,22.60
2012,07,14,17,09,22.60
2012,07,14,17,10,22.60
2012,07,14,17,11,22.60
2012,07,14,17,12,22.70
2012,07,14,17,13,22.80
2012,07,14,17,14,22.80
2012,07,14,17,15,22.90
2012,07,14,17,16,22.90
2012,07,14,17,17,22.90
2012,07,14,17,18,23.00
2012,07,14,17,19,23.10